STARLINK-5706, 55488

Orbit data source: Space-Track

STARLINK-5706, 55488 is a payload satellite owned by SpaceX/Seattle (US) in LEO that was launched on Thu, 02 Feb 2023 UTC via an FALCON 9 launch vehicle from the Air Force Eastern Test Range (AFETR). Payload-class satellites include a variety of spacecraft equipped with specific instruments for various scientific and technological missions. These include communications satellites like Starlink; space stations such as the ISS; scientific satellites like the Hubble; Earth observation satellites from companies like Planet Labs, Umbra, and HawkEye 360; GPS; miniature CubeSats for education and research; and military/defense satellites.

Loading next visibility...
Identifier
55488, 2023-015AR
Orbit
LEO
Country
Flag of USUS
Related business
Manufacturer
SpaceX/Seattle
Mission
Operational Commercial Communications
Bus & Motor
STARLINK, Unknown motor
Mass
305 kg wet, ~290 kg dry
Launch date (UTC)
2023-02-02 (3 years ago)
Launch vehicle
FALCON 9
Launch site
Air Force Eastern Test Range (AFETR)
Object type
Payload
Rocket body
Debris
Shape & HBR
Box + 1 Pan, 10.1 m
Radar Cross Section
13.562 m², Large (>1 m²)

Expand to show TLE details & history
Last TLE update: 5 hours ago

TLE from 5 hours ago
0 STARLINK-5706
1 55488U 23015AR  26132.95363466  .00001005  00000-0  46075-4 0  9999
2 55488  43.0055 336.7950 0002181 284.2169  75.8440 15.27573344180420
Epoch: 2026-05-12T22:53Z
TLE epoch observation values (Epoch: 2026-05-12T22:53:14.034Z)
Latitude
-0.00005°
Longitude
122.76586°
Altitude
482.479 km
Speed
7.626 km/s
True Right ascension
22h 27m 10s
True Declination
0° 00' 00"
Sunlit
Object was in daylight at epoch
Visualization orbit readout
Latitude
Unknown
Longitude
Unknown
Altitude
Unknown
Speed
Unknown
Apparent Right ascension
Unknown
Apparent Declination
Unknown
Sunlit
N/A
Visualization observer readout
Local Sidereal Time
12:10:04
Azimuth
Unknown
Elevation
Unknown
Doppler factor
Unknown
Orbital elements
Apogee altitude
486.51 km
Perigee altitude
483.516 km
Semi-major axis
6,863.15 km
Eccentricity
0.00022
Inclination
43.0055°
RAAN
336.795°
Arg. of periapsis
284.2169°
True anomaly
75.86824°
Mean anomaly
75.844°
Eccentric anomaly
75.85612°
Mean motion
3.81731 °/min
Orbital period
94.31 mins
BSTAR
0.000046075
Loading maneuver chart data...
Computing Atmospheric mass density...
Loading historical data...
Loading historical data...
Loading historical data...
Loading historical data...
Loading historical data...
Loading historical data...
Loading historical data...

Documentation

Showing up to 5 results
|